Weather observations for the past three days for
Hastings, Hastings Municipal Airport
Metric (Imperial)
Date Time (cdt) Wind (kph) Vis. (km) Weather Sky Cond. Temperature (ºC) Relative Humidity Wind Chill (°C) Heat Index (°C) Pressure Precipitation (cm)
Air Dwpt 6 hour altimeter (cm) sea level (mb) 1 hr 3 hr 6 hr
Max. Min.
06 09:53 SW 17 G 33 16.09 Light Rain SCT100 BKN120 22.8 17.8 74% 76.25 1014.5 0.03 0.03
06 08:53 W 15 16.09 Partly Cloudy FEW060 SCT090 SCT110 22.2 18.9 82% 76.35 1016.1
06 07:53 NW 15 16.09 Fair CLR 21.7 18.9 84% 76.33 1015.7
06 06:53 NW 26 16.09 Mostly Cloudy BKN085 BKN110 23.9 18.9 26.7 23.3 74% 25 76.33 1015.6
06 05:53 Calm 16.09 Partly Cloudy SCT080 23.9 19.4 76% 24 76.23 1014.0
06 04:53 SE 11 16.09 Fair CLR 24.4 18.9 72% 25 76.15 1012.9
06 03:53 SE 11 16.09 Fair CLR 25 19.4 71% 26 76.12 1012.5
06 01:53 SE 13 16.09 Fair CLR 25.6 20 71% 27 76.12 1012.7
06 00:53 SE 15 16.09 Fair CLR 26.7 20 32.8 26.7 67% 28 76.12 1012.7
05 23:53 SE 11 16.09 Fair CLR 27.8 20.6 65% 30 76.12 1012.8
05 22:53 SE 13 16.09 Fair CLR 27.8 21.1 67% 30 76.12 1012.7
05 21:53 SE 13 16.09 Fair CLR 28.9 21.7 65% 32 76.1 1012.3
05 20:53 SE 11 16.09 Fair CLR 30 21.7 61% 33 76.02 1011.3
05 19:53 E 9 16.09 Fair CLR 30.6 21.7 59% 34 76 1010.9
05 18:53 SE 11 16.09 Fair CLR 32.8 21.7 33.9 30.6 52% 36 75.97 1010.7
05 17:53 SE 19 16.09 Fair CLR 33.3 21.7 51% 37 75.97 1010.6
05 16:53 SE 19 16.09 Fair CLR 33.9 21.7 49% 38 76.02 1011.1
05 15:53 E 20 G 43 16.09 Fair CLR 33.3 21.7 51% 37 76.07 1011.9
05 12:53 E 19 16.09 Fair CLR 30.6 22.2 30.6 21.1 61% 34 76.23 1014.0
05 11:53 E 13 16.09 Fair CLR 28.3 21.7 67% 31 76.25 1014.4
05 10:53 Calm 16.09 Fair CLR 27.2 20.6 67% 29 76.17 1013.5
05 09:53 S 9 16.09 Fair CLR 26.1 20.6 72% 28 76.12 1012.9
05 08:53 Calm 16.09 Fair CLR 25 20 74% 26 76.1 1012.4
05 07:53 S 6 16.09 Fair CLR 23.3 19.4 79% 76.05 1011.8
05 06:53 Calm 16.09 Fair CLR 21.1 18.9 26.1 21.1 87% 76.02 1011.4
05 05:53 S 7 16.09 Fair CLR 22.8 19.4 81% 75.97 1010.7
05 04:53 S 13 16.09 Fair CLR 23.9 19.4 76% 24 75.97 1010.6
05 03:53 S 11 16.09 Fair CLR 24.4 19.4 74% 25 76.02 1011.3
05 02:53 S 9 16.09 Fair CLR 25 19.4 71% 26 76.05 1011.6
05 01:53 S 11 16.09 Fair CLR 25.6 19.4 69% 27 76.05 1011.6
05 00:53 SE 11 16.09 Fair CLR 26.1 20 32.2 26.1 69% 27 76.05 1011.5
04 23:53 SE 7 16.09 Fair CLR 26.1 20 69% 27 76.05 1011.5
04 22:53 SE 9 16.09 Fair CLR 27.8 20.6 65% 30 76.02 1011.4
04 21:53 SE 11 16.09 Fair CLR 28.3 21.1 65% 31 76 1010.9
04 20:53 SE 11 16.09 Fair CLR 28.9 22.8 70% 32 75.95 1010.3
04 19:53 SE 11 16.09 Fair CLR 31.7 23.3 61% 37 75.95 1010.3
04 18:53 SE 15 16.09 Fair CLR 32.2 22.8 34.4 31.7 58% 37 75.92 1010.0
04 17:53 SE 15 G 33 16.09 Fair CLR 33.3 22.2 52% 38 75.92 1009.9
04 16:53 SE 15 G 33 16.09 A Few Clouds FEW120 34.4 22.8 51% 40 75.9 1009.7
04 15:53 SE 11 16.09 Mostly Cloudy FEW070 SCT090 BKN110 31.7 22.2 57% 36 75.95 1010.3
04 14:53 SE 13 14.48 Mostly Cloudy BKN110 31.7 22.2 57% 36 75.95 1010.4
04 13:53 S 9 16.09 Fair CLR 32.8 21.7 52% 36 76.02 1011.2
04 12:53 Vrbl 7 16.09 Fair CLR 32.2 21.7 32.2 22.8 54% 36 76.05 1011.5
04 11:53 SW 7 16.09 Fair CLR 31.1 21.1 55% 34 76.05 1011.5
04 10:53 S 11 16.09 Fair CLR 28.9 21.1 63% 31 76.02 1011.5
04 09:53 S 15 16.09 Fair CLR 27.2 20.6 67% 29 76.02 1011.4
04 08:53 S 13 16.09 Fair CLR 25 20.6 77% 26 76 1011.3
04 07:53 S 9 16.09 A Few Clouds FEW110 22.8 19.4 81% 75.97 1010.9
04 06:53 S 11 16.09 Fair CLR 22.8 19.4 25 22.8 81% 75.95 1010.1
04 05:53 S 9 16.09 Fair CLR 23.9 19.4 76% 24 75.92 1009.8
04 04:53 S 11 16.09 Fair CLR 24.4 18.9 72% 25 75.92 1009.6
04 03:53 S 7 16.09 Fair CLR 25 18.9 69% 26 75.9 1009.3
04 02:53 S 13 16.09 Fair CLR 25 18.3 66% 26 75.87 1009.2
04 01:53 S 11 16.09 Fair CLR 23.9 18.9 74% 25 75.87 1009.3
04 00:53 S 7 16.09 Fair CLR 25 18.9 35.6 25 69% 26 75.84 1008.7
03 23:53 S 11 16.09 Fair CLR 26.7 18.9 62% 28 75.79 1008.2
03 22:53 Calm 16.09 Fair CLR 25 21.1 79% 26 75.79 1008.3
03 21:53 N 7 16.09 Fair CLR 26.1 21.7 77% 28 75.77 1007.8
03 20:53 NE 9 16.09 Fair CLR 26.7 22.2 76% 29 75.72 1007.5
03 19:53 N 9 16.09 Fair CLR 30.6 23.3 65% 35 75.67 1006.5
03 18:53 SW 6 16.09 Fair CLR 35.6 18.9 36.1 32.2 37% 38 75.64 1006.0
03 17:53 S 11 16.09 Fair CLR 35.6 18.9 37% 38 75.62 1005.7
03 16:53 S 11 16.09 Fair CLR 36.1 18.3 35% 38 75.64 1005.8
03 15:53 S 17 16.09 Fair CLR 35.6 18.9 37% 38 75.67 1006.3
03 14:53 S 19 16.09 Fair CLR 34.4 19.4 41% 36 75.72 1006.9
03 13:53 SW 22 G 37 16.09 Fair CLR 33.3 18.9 43% 35 75.74 1007.4
03 12:53 SW 26 G 37 16.09 Fair CLR 32.2 18.3 32.8 22.8 44% 33 75.79 1008.2
03 11:53 SW 15 G 33 16.09 Fair CLR 31.1 18.9 48% 32 75.82 1008.6
Date Time (cdt) Wind (kph) Vis. (km) Weather Sky Cond. Air Dwpt Max. Min. Relative Humidity Wind Chill (°C) Heat Index (°C) altimeter (cm) sea level (mb) 1 hr 3 hr 6 hr
6 hour
Temperature (ºC) Pressure Precipitation (cm)